KUIPER-00024

导读

KUIPER-00024是美国亚马逊柯伊伯(Project Kuiper)卫星互联网计划的量产卫星,于2025年4月28日由联合发射联盟Atlas V火箭发射升空,进入近地轨道。该卫星属于柯伊伯计划第二次批量发射的27颗卫星之一,将助力构建3236颗卫星规模的低轨星座,为全球提供高速低延迟互联网接入,并可与亚马逊AWS云服务深度整合,拓展边缘计算、物联网等场景应用。

基本信息
目录编号:
63738
目录名称:
KUIPER-00024
国际标识:
2025-088Q
轨道中心:
EARTH
卫星名称:
KUIPER-00024
卫星全名:
KUIPER-00024
卫星状态:
在轨 (已飞行502 天)
发射日期:
2025-04-28 UTC
国别 :
美国 (US)
星等 :
--
该卫星已列入 空间交会检测服务 Space Conjunction Data Service (SCDS) ,当前飞行风险评估等级: 无高风险
轨道信息
数据来源 国际轨道数据
星历时间: 2026-09-12T00:59:15+0800
13小时前
查看轨道信息
半长轴: 7007.698km
偏心率: 0.0000372
轨道倾角: 51.905°
近地点辐角 90.270°
升交点赤经 350.592°
平近点角 269.830°
近地点: 629.3km
远地点: 629.822km
周期: 97.302分钟
每日圈数: 14.79925
详细信息
使用方式:
暂无
2D轨道图
3D轨道图
轨道高度分析图
轨道倾角分析图
轨道综合分析图
查看轨道综合分析图
与全量物体交会距离演化趋势
与全量物体交会风险概率演化趋势